Change the Weather History Date:

Friday, October 12, 2012

  Actual Average Record
Temperature  
Mean Temperature 52 °F -  
Max Temperature 60 °F 61 °F 75 °F (1955)
Min Temperature 42 °F 49 °F 36 °F (1964)
Degree Days  
Heating Degree Days 13    
Growing Degree Days 2 (Base 50)    
Moisture  
Dew Point 36 °F    
Average Humidity 53    
Maximum Humidity 76    
Minimum Humidity 43    
Precipitation  
Precipitation 0.00 in - - ()
Sea Level Pressure  
Sea Level Pressure 30.15 in    
Wind  
Wind Speed 15 mph (WNW)    
Max Wind Speed 20 mph    
Max Gust Speed 26 mph    
Visibility 10 miles    
Events      
Averages and records for this station are not official NWS values.
T = Trace of Precipitation, MM = Missing Value Source: NWS Daily Summary

Daily Weather History Graph

Daily Weather History Graph

Search for Another Location

Airport or City:

Trip Planner

Search our weather history database for the weather conditions in past years. The results will help you decide how hot, cold, wet, or windy it might be!

Date:

Astronomy

Oct. 12, 2012 Rise Set
Actual Time 6:55 AM EDT 6:09 PM EDT
Civil Twilight 6:27 AM EDT 6:37 PM EDT
Nautical Twilight 5:55 AM EDT 7:09 PM EDT
Astronomical Twilight 5:23 AM EDT 7:40 PM EDT
Moon 3:33 AM EDT (10/12) 4:18 PM EDT (10/12)
Length of Visible Light 12h 09m
Length of Day
11h 14m
Waning Crescent, 11% of the Moon is Illuminated
Oct 12
Waning Crescent
Oct 15
New
Oct 21
First Quarter
Oct 29
Full
Nov 6
Last Quarter

Hourly Weather History & Observations

Time (EDT) Temp. Windchill Dew Point Humidity Pressure Visibility Wind Dir Wind Speed Gust Speed Precip Events Conditions
12:15 AM 55.4 °F - 42.8 °F 63% 30.16 in 10.0 mi WSW 15.0 mph 18.4 mph N/A   Clear
12:55 AM 55.4 °F - 39.2 °F 54% 30.16 in 10.0 mi West 15.0 mph 19.6 mph N/A   Clear
1:15 AM 55.4 °F - 39.2 °F 54% 30.15 in 10.0 mi West 10.4 mph 17.3 mph N/A   Clear
1:35 AM 55.4 °F - 39.2 °F 54% 30.14 in 10.0 mi WSW 12.7 mph 19.6 mph N/A   Clear
2:15 AM 55.4 °F - 39.2 °F 54% 30.14 in 10.0 mi West 12.7 mph 20.7 mph N/A   Clear
2:35 AM 55.4 °F - 39.2 °F 54% 30.12 in 10.0 mi WSW 17.3 mph 23.0 mph N/A   Clear
2:55 AM 55.4 °F - 35.6 °F 47% 30.12 in 10.0 mi WSW 19.6 mph - N/A   Clear
3:15 AM 55.4 °F - 33.8 °F 44% 30.12 in 10.0 mi WSW 15.0 mph 21.9 mph N/A   Clear
3:35 AM 55.4 °F - 35.6 °F 47% 30.11 in 10.0 mi WSW 16.1 mph 23.0 mph N/A   Clear
3:55 AM 55.4 °F - 35.6 °F 47% 30.10 in 10.0 mi WSW 16.1 mph 20.7 mph N/A   Clear
4:15 AM 55.4 °F - 37.4 °F 51% 30.10 in 10.0 mi WSW 13.8 mph 20.7 mph N/A   Clear
4:35 AM 55.4 °F - 39.2 °F 54% 30.10 in 10.0 mi WSW 13.8 mph 20.7 mph N/A   Clear
4:55 AM 55.4 °F - 39.2 °F 54% 30.09 in 10.0 mi WSW 18.4 mph 21.9 mph N/A   Clear
5:15 AM 55.4 °F - 37.4 °F 51% 30.08 in 10.0 mi WSW 19.6 mph 26.5 mph N/A   Clear
5:35 AM 55.4 °F - 37.4 °F 51% 30.07 in 10.0 mi WSW 16.1 mph 23.0 mph N/A   Clear
6:35 AM 55.4 °F - 37.4 °F 51% 30.06 in 10.0 mi WSW 16.1 mph 24.2 mph N/A   Clear
6:55 AM 55.4 °F - 37.4 °F 51% 30.06 in 10.0 mi WSW 17.3 mph 25.3 mph N/A   Clear
7:35 AM 55.4 °F - 39.2 °F 54% 30.06 in 10.0 mi WSW 16.1 mph 26.5 mph N/A   Clear
7:55 AM 57.2 °F - 39.2 °F 51% 30.05 in 10.0 mi WSW 18.4 mph 26.5 mph N/A   Clear
8:35 AM 57.2 °F - 41.0 °F 55% 30.06 in 10.0 mi West 19.6 mph 26.5 mph N/A   Clear
8:55 AM 57.2 °F - 42.8 °F 59% 30.06 in 10.0 mi West 18.4 mph 25.3 mph N/A   Clear
9:15 AM 57.2 °F - 42.8 °F 59% 30.07 in 10.0 mi West 13.8 mph 25.3 mph N/A   Clear
9:35 AM 59.0 °F - 42.8 °F 55% 30.07 in 10.0 mi West 15.0 mph 23.0 mph N/A   Clear
9:55 AM 60.8 °F - 44.6 °F 55% 30.07 in 10.0 mi West 15.0 mph 20.7 mph N/A   Clear
10:15 AM 60.8 °F - 44.6 °F 55% 30.08 in 10.0 mi West 13.8 mph 20.7 mph N/A   Clear
10:35 AM 60.8 °F - 46.4 °F 59% 30.08 in 10.0 mi WNW 11.5 mph 20.7 mph N/A   Partly Cloudy
11:35 AM 59.0 °F - 39.2 °F 48% 30.08 in 10.0 mi NW 11.5 mph 18.4 mph N/A   Clear
12:15 PM 55.4 °F - 37.4 °F 51% 30.08 in 10.0 mi NNW 10.4 mph 19.6 mph N/A   Mostly Cloudy
12:35 PM 53.6 °F - 37.4 °F 54% 30.08 in 10.0 mi North 13.8 mph 20.7 mph N/A   Overcast
12:55 PM 51.8 °F - 39.2 °F 62% 30.09 in 10.0 mi NNW 18.4 mph 21.9 mph N/A   Overcast
1:15 PM 48.2 °F - 39.2 °F 71% 30.10 in 10.0 mi North 11.5 mph 20.7 mph N/A   Overcast
1:35 PM 48.2 °F - 39.2 °F 71% 30.11 in 10.0 mi NNW 12.7 mph 19.6 mph N/A   Overcast
2:35 PM 48.2 °F - 41.0 °F 76% 30.10 in 10.0 mi NNW 10.4 mph 16.1 mph N/A   Overcast
2:55 PM 48.2 °F - 39.2 °F 71% 30.12 in 10.0 mi NNW 10.4 mph 19.6 mph N/A   Overcast
3:55 PM 51.8 °F - 35.6 °F 54% 30.14 in 10.0 mi North 12.7 mph 21.9 mph N/A   Mostly Cloudy
4:15 PM 51.8 °F - 37.4 °F 58% 30.14 in 10.0 mi NNW 12.7 mph 16.1 mph N/A   Scattered Clouds
4:35 PM 51.8 °F - 35.6 °F 54% 30.14 in 10.0 mi NNW 12.7 mph 20.7 mph N/A   Clear
5:15 PM 51.8 °F - 32.0 °F 47% 30.16 in 10.0 mi NNW 11.5 mph 21.9 mph N/A   Clear
6:15 PM 51.8 °F - 30.2 °F 44% 30.20 in 10.0 mi NNW 13.8 mph 19.6 mph N/A   Clear
7:15 PM 50.0 °F - 32.0 °F 50% 30.23 in 10.0 mi NNW 13.8 mph 21.9 mph N/A   Clear
7:35 PM 50.0 °F - 30.2 °F 47% 30.24 in 10.0 mi NNW 13.8 mph 23.0 mph N/A   Clear
8:15 PM 50.0 °F - 28.4 °F 43% 30.27 in 10.0 mi NNW 17.3 mph 24.2 mph N/A   Clear
8:35 PM 48.2 °F - 30.2 °F 50% 30.28 in 10.0 mi North 15.0 mph 21.9 mph N/A   Clear
8:55 PM 48.2 °F - 26.6 °F 43% 30.30 in 10.0 mi North 15.0 mph 26.5 mph N/A   Clear
9:15 PM 48.2 °F - 26.6 °F 43% 30.31 in 10.0 mi North 11.5 mph 25.3 mph N/A   Clear
10:15 PM 46.4 °F 40.4 °F 26.6 °F 46% 30.33 in 10.0 mi North 13.8 mph 23.0 mph N/A   Clear
10:35 PM 46.4 °F 39.5 °F 28.4 °F 50% 30.34 in 10.0 mi North 17.3 mph 25.3 mph N/A   Clear
10:55 PM 44.6 °F 37.2 °F 26.6 °F 49% 30.36 in 10.0 mi North 17.3 mph 25.3 mph N/A   Clear
11:15 PM 44.6 °F 36.9 °F 26.6 °F 49% 30.36 in 10.0 mi North 18.4 mph 26.5 mph N/A   Clear
11:35 PM 44.6 °F 38.4 °F 24.8 °F 46% 30.37 in 10.0 mi North 12.7 mph 24.2 mph N/A   Clear
11:55 PM 42.8 °F 35.1 °F 24.8 °F 49% 30.38 in 10.0 mi North 16.1 mph 23.0 mph N/A   Clear